QPF
0.03 0.04 0.04 0.06 0.07 0.06 0.07 0.07 0.06 0.06 0.08 0.08 0.08 0.04 0.03 0.03 0.06 0.10 0.13 0.12 0.09 0.06 0.07 0.06 0.07 0.07 0.07 0.06 0.06 0.06 0.08 0.08 0.07 0.06 0.07 0.07 0.06 0.04 0.04 0.03 0.03 0.03 0.03
0.06 0.05 0.05 0.06 0.07 0.06 0.06 0.05 0.07 0.07 0.09 0.07 0.04 0.02 0.02 0.03 0.06 0.07 0.07 0.07 0.09 0.07 0.07 0.08 0.08 0.08 0.08 0.08 0.08 0.07 0.08 0.08 0.06 0.05 0.06 0.07 0.06 0.05 0.04 0.03 0.02 0.02 0.02
0.06 0.07 0.07 0.06 0.06 0.06 0.06 0.06 0.07 0.07 0.07 0.06 0.04 0.02 0.02 0.03 0.05 0.06 0.05 0.04 0.04 0.06 0.07 0.08 0.08 0.07 0.08 0.09 0.09 0.07 0.07 0.07 0.06 0.05 0.05 0.05 0.05 0.05 0.04 0.04 0.03 0.02 0.02
0.05 0.06 0.07 0.06 0.05 0.06 0.06 0.05 0.07 0.07 0.09 0.07 0.05 0.05 0.03 0.04 0.05 0.07 0.07 0.06 0.05 0.05 0.06 0.09 0.10 0.09 0.09 0.08 0.08 0.07 0.07 0.06 0.05 0.05 0.06 0.05 0.05 0.04 0.04 0.04 0.03 0.02 0.02
0.04 0.02 0.04 0.04 0.05 0.03 0.03 0.03 0.06 0.07 0.09 0.11 0.10 0.06 0.04 0.05 0.06 0.11 0.11 0.06 0.06 0.07 0.09 0.10 0.09 0.08 0.08 0.07 0.07 0.08 0.07 0.06 0.04 0.04 0.05 0.04 0.04 0.04 0.04 0.04 0.05 0.04 0.02
0.05 0.03 0.04 0.05 0.05 0.03 0.03 0.03 0.05 0.06 0.10 0.12 0.10 0.07 0.05 0.05 0.06 0.08 0.08 0.06 0.07 0.07 0.10 0.10 0.08 0.09 0.09 0.07 0.07 0.07 0.07 0.07 0.06 0.04 0.04 0.04 0.04 0.05 0.05 0.04 0.03 0.04 0.06
0.08 0.08 0.09 0.07 0.05 0.04 0.04 0.04 0.05 0.06 0.09 0.11 0.12 0.10 0.07 0.08 0.08 0.07 0.07 0.07 0.07 0.07 0.09 0.12 0.11 0.09 0.08 0.07 0.05 0.05 0.05 0.06 0.06 0.04 0.03 0.03 0.04 0.04 0.04 0.04 0.03 0.03 0.05
0.11 0.09 0.06 0.05 0.04 0.04 0.03 0.03 0.05 0.05 0.06 0.09 0.11 0.09 0.07 0.08 0.10 0.09 0.09 0.11 0.10 0.07 0.07 0.09 0.10 0.11 0.08 0.06 0.05 0.04 0.05 0.06 0.07 0.06 0.05 0.04 0.04 0.04 0.04 0.04 0.05 0.06 0.07
0.10 0.10 0.09 0.07 0.06 0.04 0.03 0.03 0.04 0.06 0.06 0.07 0.09 0.09 0.08 0.09 0.12 0.13 0.12 0.11 0.07 0.04 0.04 0.05 0.09 0.10 0.07 0.06 0.06 0.05 0.05 0.05 0.07 0.07 0.06 0.07 0.07 0.05 0.04 0.04 0.06 0.06 0.07
0.12 0.08 0.07 0.07 0.07 0.06 0.04 0.03 0.03 0.04 0.05 0.05 0.06 0.07 0.06 0.06 0.08 0.10 0.11 0.10 0.07 0.05 0.05 0.05 0.06 0.07 0.07 0.06 0.06 0.07 0.05 0.05 0.04 0.05 0.07 0.07 0.06 0.05 0.04 0.05 0.07 0.07 0.07
0.08 0.06 0.05 0.06 0.06 0.06 0.04 0.04 0.05 0.06 0.06 0.05 0.05 0.07 0.08 0.07 0.07 0.07 0.10 0.11 0.11 0.10 0.09 0.08 0.08 0.07 0.06 0.05 0.05 0.06 0.06 0.05 0.04 0.04 0.05 0.05 0.05 0.05 0.05 0.05 0.06 0.07 0.07
0.08 0.07 0.05 0.04 0.04 0.04 0.05 0.06 0.07 0.07 0.07 0.05 0.04 0.05 0.05 0.07 0.07 0.08 0.10 0.12 0.13 0.13 0.11 0.10 0.09 0.07 0.05 0.04 0.03 0.04 0.04 0.04 0.04 0.04 0.04 0.04 0.05 0.06 0.07 0.07 0.06 0.06 0.07
0.08 0.06 0.04 0.03 0.04 0.05 0.10 0.11 0.07 0.05 0.06 0.05 0.03 0.02 0.03 0.04 0.04 0.04 0.05 0.05 0.07 0.09 0.10 0.11 0.10 0.08 0.06 0.04 0.03 0.03 0.03 0.03 0.04 0.04 0.04 0.05 0.05 0.05 0.06 0.06 0.08 0.06 0.05
0.05 0.05 0.04 0.04 0.05 0.07 0.06 0.05 0.04 0.03 0.03 0.04 0.03 0.02 0.02 0.03 0.05 0.05 0.03 0.03 0.04 0.05 0.07 0.10 0.09 0.07 0.05 0.04 0.04 0.03 0.03 0.03 0.03 0.03 0.03 0.03 0.04 0.04 0.04 0.05 0.08 0.06 0.05
0.04 0.05 0.05 0.04 0.04 0.05 0.05 0.04 0.03 0.02 0.01 0.02 0.02 0.03 0.02 0.02 0.03 0.04 0.05 0.04 0.04 0.04 0.06 0.07 0.07 0.06 0.04 0.04 0.05 0.04 0.03 0.04 0.03 0.03 0.02 0.02 0.02 0.03 0.03 0.03 0.07 0.08 0.05
0.04 0.04 0.04 0.04 0.04 0.04 0.04 0.03 0.02 0.03 0.02 0.01 0.01 0.02 0.02 0.02 0.02 0.04 0.05 0.06 0.05 0.04 0.04 0.05 0.04 0.04 0.03 0.03 0.04 0.04 0.03 0.03 0.02 0.02 0.01 0.01 0.02 0.01 0.01 0.02 0.03 0.05 0.05
0.04 0.03 0.04 0.04 0.04 0.03 0.03 0.02 0.02 0.03 0.03 0.01 0.01 0.01 0.02 0.03 0.02 0.03 0.05 0.07 0.06 0.05 0.04 0.04 0.03 0.03 0.03 0.03 0.04 0.04 0.03 0.02 0.02 0.02 0.01 0.02 0.02 0.01 0.01 0.02 0.02 0.03 0.04
0.03 0.03 0.02 0.02 0.03 0.03 0.04 0.03 0.03 0.04 0.03 0.02 0.03 0.03 0.02 0.03 0.03 0.04 0.05 0.05 0.06 0.05 0.04 0.04 0.05 0.04 0.04 0.04 0.05 0.04 0.03 0.02 0.01 0.01 0.01 0.01 0.01 0.01 0.01 0.01 0.01 0.02 0.03
0.02 0.03 0.02 0.02 0.02 0.02 0.02 0.02 0.03 0.03 0.04 0.04 0.04 0.04 0.03 0.04 0.04 0.05 0.06 0.06 0.06 0.07 0.06 0.05 0.05 0.05 0.05 0.04 0.05 0.04 0.02 0.02 0.02 0.01 0.02 0.02 0.01 0.01 0.00 0.01 0.01 0.01 0.02
0.02 0.02 0.02 0.02 0.02 0.03 0.03 0.02 0.03 0.03 0.02 0.02 0.03 0.03 0.03 0.04 0.04 0.06 0.07 0.07 0.09 0.09 0.08 0.06 0.06 0.06 0.06 0.05 0.05 0.03 0.03 0.03 0.03 0.02 0.02 0.03 0.02 0.01 0.01 0.01 0.01 0.01 0.01
0.01 0.02 0.03 0.02 0.02 0.03 0.03 0.03 0.03 0.03 0.02 0.02 0.04 0.03 0.04 0.05 0.06 0.07 0.06 0.06 0.08 0.09 0.08 0.08 0.07 0.06 0.05 0.06 0.05 0.04 0.05 0.05 0.04 0.03 0.04 0.04 0.04 0.03 0.02 0.02 0.01 0.01 0.01
0.02 0.01 0.02 0.03 0.02 0.03 0.05 0.04 0.03 0.03 0.03 0.02 0.02 0.02 0.03 0.03 0.04 0.05 0.05 0.06 0.08 0.10 0.10 0.09 0.08 0.07 0.05 0.04 0.04 0.05 0.05 0.07 0.05 0.03 0.04 0.04 0.04 0.03 0.02 0.02 0.02 0.01 0.01
0.02 0.03 0.03 0.03 0.02 0.02 0.03 0.03 0.04 0.04 0.03 0.03 0.03 0.03 0.03 0.03 0.04 0.05 0.05 0.07 0.08 0.07 0.08 0.09 0.07 0.06 0.06 0.05 0.06 0.06 0.06 0.06 0.05 0.05 0.05 0.03 0.03 0.03 0.03 0.02 0.03 0.02 0.01
0.02 0.02 0.02 0.02 0.02 0.02 0.03 0.03 0.03 0.03 0.02 0.02 0.02 0.02 0.03 0.04 0.05 0.06 0.07 0.06 0.05 0.04 0.05 0.07 0.06 0.06 0.05 0.05 0.06 0.06 0.07 0.07 0.07 0.06 0.05 0.04 0.04 0.03 0.03 0.02 0.03 0.03 0.02
0.02 0.02 0.01 0.01 0.02 0.02 0.03 0.03 0.03 0.03 0.03 0.02 0.02 0.01 0.02 0.03 0.04 0.06 0.07 0.06 0.04 0.03 0.03 0.05 0.06 0.06 0.06 0.06 0.07 0.08 0.08 0.08 0.06 0.04 0.04 0.03 0.03 0.03 0.03 0.02 0.02 0.03 0.03
0.01 0.02 0.02 0.02 0.02 0.03 0.06 0.06 0.05 0.04 0.03 0.02 0.02 0.01 0.02 0.02 0.03 0.04 0.05 0.04 0.04 0.04 0.04 0.04 0.04 0.04 0.04 0.04 0.05 0.06 0.06 0.08 0.08 0.06 0.05 0.05 0.04 0.04 0.04 0.03 0.03 0.02 0.03
MSLP
1015.61 1015.67 1015.68 1015.66 1015.67 1015.71 1015.78 1015.89 1015.99 1016.06 1016.08 1016.02 1015.90 1015.73 1015.55 1015.37 1015.24 1015.15 1015.12 1015.14 1015.19 1015.25 1015.32 1015.39 1015.46 1015.53 1015.61 1015.71 1015.83 1015.98 1016.17 1016.38 1016.62 1016.88 1017.17 1017.47 1017.77 1018.07 1018.34 1018.57 1018.76 1018.91 1019.04
1015.23 1015.31 1015.34 1015.36 1015.39 1015.44 1015.53 1015.63 1015.73 1015.80 1015.81 1015.76 1015.64 1015.47 1015.28 1015.07 1014.89 1014.74 1014.64 1014.59 1014.59 1014.62 1014.68 1014.76 1014.86 1014.97 1015.08 1015.20 1015.33 1015.47 1015.64 1015.83 1016.07 1016.34 1016.66 1017.00 1017.35 1017.69 1018.01 1018.27 1018.48 1018.65 1018.78
1014.76 1014.86 1014.93 1015.00 1015.08 1015.18 1015.30 1015.42 1015.53 1015.61 1015.63 1015.58 1015.47 1015.30 1015.09 1014.84 1014.59 1014.36 1014.17 1014.02 1013.93 1013.90 1013.93 1014.01 1014.13 1014.27 1014.43 1014.59 1014.74 1014.90 1015.07 1015.26 1015.49 1015.77 1016.11 1016.48 1016.87 1017.26 1017.61 1017.91 1018.15 1018.34 1018.48
1014.23 1014.35 1014.48 1014.62 1014.77 1014.93 1015.10 1015.25 1015.38 1015.47 1015.50 1015.47 1015.37 1015.20 1014.96 1014.68 1014.36 1014.04 1013.74 1013.47 1013.28 1013.16 1013.13 1013.19 1013.32 1013.49 1013.69 1013.89 1014.09 1014.27 1014.46 1014.66 1014.90 1015.19 1015.53 1015.92 1016.34 1016.76 1017.15 1017.49 1017.76 1017.97 1018.14
1013.68 1013.82 1014.00 1014.21 1014.43 1014.66 1014.88 1015.07 1015.22 1015.33 1015.38 1015.36 1015.27 1015.11 1014.88 1014.57 1014.20 1013.79 1013.39 1013.01 1012.70 1012.48 1012.37 1012.38 1012.49 1012.68 1012.91 1013.15 1013.39 1013.61 1013.82 1014.04 1014.29 1014.58 1014.94 1015.34 1015.78 1016.22 1016.64 1017.01 1017.31 1017.54 1017.74
1013.15 1013.29 1013.51 1013.77 1014.05 1014.34 1014.60 1014.82 1014.99 1015.11 1015.17 1015.18 1015.12 1014.98 1014.77 1014.46 1014.08 1013.62 1013.14 1012.66 1012.25 1011.93 1011.73 1011.67 1011.74 1011.92 1012.15 1012.42 1012.69 1012.94 1013.17 1013.41 1013.67 1013.97 1014.33 1014.74 1015.19 1015.64 1016.07 1016.46 1016.78 1017.04 1017.26
1012.65 1012.78 1013.00 1013.29 1013.61 1013.92 1014.20 1014.43 1014.61 1014.73 1014.81 1014.84 1014.82 1014.74 1014.58 1014.32 1013.96 1013.50 1012.99 1012.45 1011.95 1011.54 1011.25 1011.11 1011.12 1011.25 1011.47 1011.73 1012.01 1012.27 1012.52 1012.77 1013.04 1013.35 1013.71 1014.12 1014.56 1015.02 1015.45 1015.85 1016.18 1016.46 1016.71
1012.18 1012.27 1012.47 1012.76 1013.08 1013.39 1013.66 1013.88 1014.04 1014.15 1014.24 1014.30 1014.33 1014.33 1014.25 1014.08 1013.79 1013.39 1012.89 1012.34 1011.80 1011.32 1010.95 1010.72 1010.65 1010.72 1010.88 1011.11 1011.37 1011.63 1011.88 1012.14 1012.41 1012.72 1013.07 1013.48 1013.91 1014.36 1014.80 1015.19 1015.54 1015.83 1016.09
1011.74 1011.77 1011.94 1012.19 1012.47 1012.75 1012.98 1013.16 1013.28 1013.37 1013.46 1013.55 1013.64 1013.72 1013.75 1013.69 1013.52 1013.22 1012.79 1012.28 1011.73 1011.21 1010.78 1010.47 1010.31 1010.29 1010.38 1010.56 1010.77 1011.01 1011.25 1011.50 1011.77 1012.08 1012.43 1012.83 1013.26 1013.71 1014.13 1014.53 1014.87 1015.18 1015.45
1011.32 1011.29 1011.40 1011.59 1011.82 1012.04 1012.21 1012.33 1012.40 1012.45 1012.51 1012.62 1012.76 1012.92 1013.06 1013.13 1013.10 1012.92 1012.59 1012.15 1011.64 1011.12 1010.64 1010.27 1010.03 1009.92 1009.93 1010.04 1010.20 1010.40 1010.62 1010.87 1011.14 1011.45 1011.81 1012.21 1012.64 1013.07 1013.50 1013.89 1014.24 1014.55 1014.84
1010.90 1010.83 1010.88 1011.02 1011.19 1011.33 1011.43 1011.46 1011.46 1011.46 1011.49 1011.58 1011.75 1011.97 1012.21 1012.39 1012.49 1012.43 1012.23 1011.88 1011.43 1010.93 1010.45 1010.04 1009.73 1009.55 1009.49 1009.52 1009.64 1009.80 1010.00 1010.24 1010.52 1010.85 1011.22 1011.62 1012.06 1012.50 1012.92 1013.32 1013.67 1013.99 1014.30
1010.51 1010.41 1010.43 1010.51 1010.61 1010.68 1010.69 1010.64 1010.56 1010.49 1010.46 1010.52 1010.69 1010.93 1011.21 1011.48 1011.68 1011.74 1011.64 1011.39 1011.02 1010.58 1010.12 1009.70 1009.36 1009.13 1009.01 1009.00 1009.07 1009.21 1009.41 1009.65 1009.95 1010.29 1010.68 1011.11 1011.56 1012.01 1012.45 1012.85 1013.21 1013.55 1013.87
1010.18 1010.08 1010.07 1010.10 1010.14 1010.14 1010.07 1009.94 1009.77 1009.61 1009.51 1009.51 1009.62 1009.84 1010.13 1010.44 1010.69 1010.83 1010.82 1010.67 1010.39 1010.01 1009.60 1009.21 1008.88 1008.64 1008.50 1008.47 1008.52 1008.66 1008.86 1009.12 1009.44 1009.81 1010.23 1010.69 1011.16 1011.63 1012.09 1012.50 1012.88 1013.23 1013.58
1009.95 1009.86 1009.83 1009.84 1009.82 1009.75 1009.61 1009.39 1009.13 1008.87 1008.67 1008.57 1008.61 1008.76 1009.01 1009.29 1009.55 1009.74 1009.80 1009.72 1009.53 1009.24 1008.91 1008.58 1008.29 1008.08 1007.96 1007.94 1008.01 1008.15 1008.38 1008.66 1009.02 1009.42 1009.88 1010.36 1010.86 1011.36 1011.83 1012.26 1012.66 1013.04 1013.40
1009.85 1009.78 1009.74 1009.71 1009.65 1009.51 1009.29 1008.98 1008.62 1008.26 1007.95 1007.74 1007.66 1007.71 1007.87 1008.09 1008.33 1008.52 1008.62 1008.61 1008.50 1008.32 1008.08 1007.84 1007.64 1007.49 1007.43 1007.45 1007.55 1007.73 1007.98 1008.30 1008.68 1009.12 1009.60 1010.11 1010.64 1011.16 1011.65 1012.11 1012.53 1012.93 1013.31
1009.90 1009.84 1009.79 1009.72 1009.60 1009.39 1009.08 1008.68 1008.22 1007.75 1007.32 1006.98 1006.77 1006.70 1006.75 1006.88 1007.06 1007.23 1007.35 1007.41 1007.39 1007.30 1007.19 1007.06 1006.96 1006.91 1006.93 1007.01 1007.16 1007.38 1007.66 1008.01 1008.42 1008.88 1009.38 1009.91 1010.45 1010.99 1011.50 1011.98 1012.43 1012.85 1013.26
1010.11 1010.04 1009.96 1009.83 1009.63 1009.33 1008.93 1008.43 1007.87 1007.28 1006.73 1006.27 1005.92 1005.72 1005.65 1005.69 1005.80 1005.94 1006.07 1006.18 1006.24 1006.27 1006.28 1006.28 1006.30 1006.36 1006.47 1006.62 1006.83 1007.09 1007.40 1007.76 1008.19 1008.66 1009.17 1009.71 1010.26 1010.81 1011.34 1011.83 1012.30 1012.75 1013.18
1010.43 1010.33 1010.19 1009.98 1009.69 1009.29 1008.79 1008.18 1007.51 1006.81 1006.14 1005.56 1005.09 1004.77 1004.59 1004.53 1004.57 1004.68 1004.83 1004.98 1005.12 1005.26 1005.38 1005.52 1005.66 1005.83 1006.02 1006.25 1006.50 1006.80 1007.13 1007.51 1007.93 1008.40 1008.91 1009.45 1010.01 1010.57 1011.11 1011.63 1012.12 1012.59 1013.04
1010.81 1010.66 1010.44 1010.14 1009.74 1009.23 1008.62 1007.90 1007.12 1006.31 1005.54 1004.85 1004.27 1003.84 1003.56 1003.43 1003.41 1003.49 1003.64 1003.83 1004.05 1004.28 1004.52 1004.76 1005.02 1005.28 1005.55 1005.84 1006.14 1006.45 1006.80 1007.18 1007.60 1008.06 1008.57 1009.11 1009.68 1010.25 1010.81 1011.36 1011.87 1012.37 1012.84
1011.19 1010.98 1010.68 1010.28 1009.78 1009.16 1008.42 1007.60 1006.71 1005.81 1004.95 1004.16 1003.49 1002.98 1002.61 1002.41 1002.34 1002.40 1002.55 1002.77 1003.04 1003.34 1003.66 1004.00 1004.34 1004.68 1005.01 1005.34 1005.67 1006.00 1006.35 1006.73 1007.15 1007.62 1008.13 1008.68 1009.26 1009.85 1010.45 1011.02 1011.57 1012.10 1012.60
1011.51 1011.25 1010.88 1010.40 1009.80 1009.08 1008.24 1007.32 1006.35 1005.37 1004.42 1003.56 1002.82 1002.22 1001.79 1001.53 1001.41 1001.44 1001.58 1001.81 1002.10 1002.45 1002.83 1003.22 1003.61 1004.00 1004.37 1004.73 1005.08 1005.42 1005.78 1006.16 1006.59 1007.06 1007.59 1008.17 1008.78 1009.41 1010.05 1010.67 1011.26 1011.81 1012.34
1011.75 1011.46 1011.05 1010.51 1009.84 1009.05 1008.14 1007.15 1006.11 1005.06 1004.05 1003.13 1002.33 1001.67 1001.18 1000.86 1000.69 1000.68 1000.79 1001.00 1001.29 1001.65 1002.04 1002.45 1002.87 1003.28 1003.66 1004.03 1004.39 1004.74 1005.10 1005.50 1005.94 1006.44 1007.00 1007.62 1008.28 1008.97 1009.66 1010.33 1010.97 1011.56 1012.11
1011.92 1011.63 1011.21 1010.66 1009.96 1009.13 1008.19 1007.16 1006.08 1004.99 1003.94 1002.97 1002.13 1001.42 1000.88 1000.49 1000.27 1000.20 1000.26 1000.43 1000.69 1001.02 1001.39 1001.78 1002.19 1002.59 1002.97 1003.33 1003.68 1004.04 1004.41 1004.82 1005.29 1005.83 1006.43 1007.10 1007.82 1008.57 1009.32 1010.06 1010.75 1011.39 1011.96
1012.05 1011.80 1011.41 1010.88 1010.20 1009.38 1008.44 1007.41 1006.32 1005.23 1004.17 1003.18 1002.31 1001.56 1000.97 1000.53 1000.25 1000.11 1000.10 1000.20 1000.40 1000.67 1000.98 1001.33 1001.70 1002.06 1002.41 1002.75 1003.09 1003.44 1003.81 1004.24 1004.73 1005.30 1005.95 1006.68 1007.46 1008.27 1009.09 1009.88 1010.62 1011.30 1011.91
1012.18 1012.00 1011.68 1011.20 1010.58 1009.81 1008.91 1007.92 1006.87 1005.80 1004.76 1003.78 1002.90 1002.14 1001.52 1001.03 1000.69 1000.48 1000.39 1000.41 1000.52 1000.71 1000.95 1001.23 1001.53 1001.83 1002.13 1002.44 1002.74 1003.07 1003.44 1003.87 1004.37 1004.96 1005.64 1006.41 1007.23 1008.10 1008.97 1009.81 1010.60 1011.32 1011.95
1012.38 1012.27 1012.03 1011.63 1011.08 1010.39 1009.57 1008.65 1007.67 1006.67 1005.68 1004.75 1003.89 1003.14 1002.50 1001.99 1001.59 1001.32 1001.16 1001.10 1001.12 1001.22 1001.37 1001.57 1001.79 1002.02 1002.26 1002.51 1002.77 1003.06 1003.39 1003.80 1004.29 1004.88 1005.56 1006.34 1007.18 1008.07 1008.96 1009.84 1010.66 1011.41 1012.07
Thickness
5781 5780 5778 5777 5776 5774 5772 5771 5769 5768 5767 5766 5765 5765 5764 5763 5762 5761 5761 5760 5759 5758 5757 5756 5754 5753 5751 5750 5748 5746 5745 5744 5742 5740 5738 5736 5735 5733 5732 5730 5729 5727 5727
5782 5780 5778 5777 5775 5774 5772 5771 5769 5768 5766 5766 5765 5764 5763 5762 5761 5760 5760 5759 5758 5757 5756 5755 5754 5752 5750 5749 5747 5745 5744 5742 5740 5739 5737 5735 5733 5732 5731 5730 5728 5727 5726
5783 5781 5778 5777 5775 5773 5772 5770 5769 5767 5766 5765 5764 5763 5763 5762 5761 5760 5759 5758 5757 5756 5755 5753 5752 5750 5749 5747 5746 5744 5743 5741 5739 5737 5736 5734 5732 5730 5730 5729 5727 5726 5725
5783 5781 5778 5776 5775 5773 5771 5769 5768 5766 5765 5764 5762 5762 5762 5761 5760 5759 5758 5757 5756 5755 5754 5752 5751 5749 5748 5746 5745 5742 5741 5739 5737 5735 5734 5733 5731 5729 5728 5728 5727 5725 5724
5783 5781 5778 5776 5774 5772 5770 5769 5767 5765 5763 5762 5761 5761 5761 5760 5759 5758 5756 5756 5755 5754 5753 5752 5750 5749 5747 5745 5743 5741 5739 5737 5736 5734 5733 5731 5730 5729 5728 5727 5726 5725 5724
5782 5780 5777 5775 5773 5771 5768 5767 5765 5764 5762 5761 5761 5760 5759 5759 5759 5758 5758 5757 5755 5753 5752 5751 5750 5748 5747 5745 5742 5740 5739 5737 5735 5733 5732 5731 5729 5728 5727 5726 5725 5724 5723
5781 5779 5776 5773 5771 5769 5767 5766 5764 5761 5760 5759 5756 5753 5755 5757 5757 5757 5757 5756 5754 5752 5752 5751 5749 5748 5746 5744 5742 5740 5738 5736 5734 5732 5731 5730 5729 5728 5726 5725 5725 5724 5723
5780 5779 5775 5773 5771 5769 5766 5765 5763 5759 5758 5758 5753 5747 5744 5746 5752 5756 5756 5754 5753 5751 5750 5749 5748 5746 5744 5742 5741 5739 5737 5735 5733 5732 5730 5729 5728 5727 5726 5725 5724 5723 5722
5779 5777 5775 5773 5771 5769 5766 5764 5763 5759 5755 5755 5754 5748 5740 5736 5741 5748 5751 5751 5750 5749 5748 5747 5746 5744 5742 5740 5739 5737 5735 5734 5732 5731 5729 5728 5727 5726 5725 5724 5723 5722 5721
5777 5776 5774 5772 5770 5768 5766 5764 5763 5759 5755 5751 5751 5751 5748 5745 5738 5737 5742 5745 5746 5745 5745 5745 5744 5742 5741 5739 5737 5736 5734 5732 5731 5729 5728 5727 5726 5725 5724 5723 5722 5721 5720
5775 5774 5772 5771 5769 5767 5765 5763 5760 5758 5755 5751 5748 5747 5745 5744 5741 5735 5732 5736 5739 5742 5743 5743 5742 5741 5739 5738 5736 5734 5732 5731 5730 5728 5726 5725 5724 5723 5722 5722 5721 5720 5719
5772 5771 5770 5768 5766 5765 5762 5760 5758 5756 5754 5751 5749 5746 5743 5740 5737 5735 5731 5730 5732 5736 5739 5740 5739 5738 5737 5736 5734 5733 5731 5729 5728 5726 5724 5723 5723 5722 5721 5720 5719 5718 5718
5767 5767 5768 5766 5764 5762 5760 5757 5756 5754 5752 5750 5748 5745 5744 5741 5740 5736 5732 5728 5728 5731 5734 5735 5736 5736 5735 5734 5732 5731 5729 5727 5726 5725 5723 5721 5721 5720 5719 5718 5717 5716 5716
5766 5766 5765 5763 5762 5760 5758 5756 5754 5752 5751 5749 5747 5744 5742 5741 5739 5736 5733 5728 5724 5724 5727 5729 5732 5733 5733 5731 5730 5728 5726 5725 5723 5722 5721 5719 5718 5717 5716 5715 5714 5714 5713
5765 5763 5762 5760 5759 5757 5756 5754 5751 5749 5748 5746 5744 5742 5740 5739 5737 5735 5733 5730 5723 5717 5719 5724 5726 5730 5729 5728 5726 5725 5723 5722 5721 5719 5718 5717 5716 5715 5713 5712 5711 5711 5710
5761 5760 5758 5756 5755 5753 5752 5750 5748 5746 5744 5742 5741 5739 5737 5736 5734 5733 5731 5728 5725 5720 5716 5721 5723 5725 5725 5724 5722 5721 5719 5718 5717 5716 5716 5714 5713 5712 5710 5709 5708 5707 5707
5757 5755 5754 5752 5751 5749 5747 5745 5744 5742 5740 5738 5737 5735 5733 5732 5730 5729 5727 5725 5722 5719 5715 5717 5719 5721 5720 5719 5718 5716 5715 5714 5713 5713 5713 5711 5710 5708 5707 5705 5704 5704 5703
5753 5751 5750 5748 5747 5745 5744 5741 5739 5738 5736 5734 5732 5730 5729 5728 5726 5724 5723 5721 5719 5718 5714 5712 5714 5715 5715 5714 5713 5712 5711 5710 5709 5709 5708 5707 5705 5704 5703 5702 5700 5700 5699
5749 5747 5746 5743 5742 5741 5740 5738 5736 5734 5733 5731 5729 5726 5725 5722 5720 5720 5718 5717 5715 5715 5712 5710 5709 5710 5710 5709 5707 5706 5706 5705 5705 5705 5703 5702 5701 5700 5699 5698 5696 5696 5695
5744 5743 5741 5739 5738 5737 5736 5734 5731 5730 5728 5726 5724 5723 5721 5719 5717 5716 5715 5713 5711 5709 5707 5705 5704 5703 5703 5703 5701 5699 5698 5699 5699 5700 5699 5697 5696 5695 5694 5693 5692 5691 5690
5741 5739 5737 5735 5734 5732 5731 5728 5726 5725 5722 5720 5719 5718 5718 5717 5716 5714 5712 5709 5707 5704 5701 5699 5698 5697 5696 5695 5694 5694 5693 5693 5693 5694 5692 5692 5690 5689 5688 5688 5687 5686 5686
5736 5734 5732 5730 5728 5728 5726 5724 5722 5719 5717 5715 5713 5713 5713 5712 5711 5710 5708 5707 5705 5701 5697 5695 5693 5691 5691 5691 5691 5689 5687 5684 5683 5688 5686 5685 5685 5683 5684 5683 5683 5682 5681
5730 5728 5727 5725 5723 5722 5721 5719 5717 5714 5712 5711 5709 5708 5708 5709 5707 5705 5703 5702 5700 5699 5697 5693 5690 5690 5689 5689 5687 5684 5682 5680 5679 5682 5679 5677 5677 5677 5679 5679 5679 5677 5676
5724 5722 5721 5719 5717 5717 5715 5713 5711 5709 5707 5705 5705 5703 5701 5701 5701 5699 5697 5695 5693 5693 5693 5692 5690 5689 5689 5688 5685 5682 5679 5677 5676 5675 5675 5670 5671 5671 5674 5673 5673 5672 5671
5718 5717 5715 5713 5711 5710 5709 5706 5704 5701 5699 5698 5698 5698 5696 5695 5695 5693 5690 5687 5686 5687 5689 5688 5687 5686 5685 5684 5682 5676 5672 5668 5666 5667 5668 5666 5665 5664 5665 5665 5666 5666 5665
5712 5710 5709 5707 5705 5703 5702 5699 5696 5693 5691 5690 5690 5691 5691 5690 5688 5686 5683 5681 5679 5680 5681 5680 5680 5680 5679 5678 5677 5673 5669 5663 5660 5659 5662 5660 5659 5657 5655 5657 5658 5658 5657